Weather History for McMinnville, OR

Change the Weather History Date:

Friday, August 23, 2013

  Actual Average Record
Temperature  
Mean Temperature 67 °F 66 °F  
Max Temperature 78 °F 82 °F 103 °F (1988)
Min Temperature 55 °F 50 °F 37 °F (1951)
Degree Days  
Heating Degree Days 0 1  
Month to date heating degree days 3 23  
Since 1 July heating degree days 14 67  
Cooling Degree Days 2 2  
Month to date cooling degree days 116 65  
Year to date cooling degree days 302 165  
Growing Degree Days 15 (Base 50)    
Moisture  
Dew Point 56 °F    
Average Humidity 72    
Maximum Humidity 93    
Minimum Humidity 50    
Precipitation  
Precipitation 0.00 in 0.02 in 1.20 in (1968)
Month to date precipitation 0.17 0.37  
Year to date precipitation 10.57 22.12  
Snow  
Snow 0.00 in - - ()
Month to date snowfall 0.0  
Since 1 June snowfall 0.0  
Snow Depth 0.00 in    
Sea Level Pressure  
Sea Level Pressure 29.92 in    
Wind  
Wind Speed 5 mph (SW)    
Max Wind Speed 14 mph    
Max Gust Speed 18 mph    
Visibility 10 miles    
Events      
T = Trace of Precipitation, MM = Missing Value Source: NWS Daily Summary

Daily Weather History Graph

Daily Weather History Graph

Search for Another Location

Airport:

Trip Planner

Search our weather history database for the weather conditions in past years. The results will help you decide how hot, cold, wet, or windy it might be!

Date:

Astronomy

Aug. 23, 2013 Rise Set
Actual Time 6:23 AM PDT 8:05 PM PDT
Civil Twilight 5:52 AM PDT 8:36 PM PDT
Nautical Twilight 5:14 AM PDT 9:14 PM PDT
Astronomical Twilight 4:33 AM PDT 9:55 PM PDT
Moon 9:14 PM PDT (8/23) 9:36 AM PDT (8/23)
Length of Visible Light 14h 43m
Length of Day
13h 41m
Waning Gibbous, 91% of the Moon is Illuminated
Aug 23
Waning Gibbous
Aug 28
Last Quarter
Sep 5
New
Sep 12
First Quarter
Sep 19
Full

Hourly Weather History & Observations

Time (PDT) Temp. Dew Point Humidity Pressure Visibility Wind Dir Wind Speed Gust Speed Precip Events Conditions
12:53 AM 61.0 °F 55.0 °F 81% 29.91 in 10.0 mi SSW 9.2 mph - N/A   Mostly Cloudy
1:53 AM 61.0 °F 55.0 °F 81% 29.91 in 10.0 mi South 6.9 mph - N/A   Partly Cloudy
2:53 AM 60.1 °F 55.9 °F 86% 29.91 in 10.0 mi SSW 11.5 mph - N/A   Clear
3:53 AM 59.0 °F 55.9 °F 90% 29.91 in 10.0 mi SW 6.9 mph - N/A   Clear
4:53 AM 57.0 °F 55.0 °F 93% 29.91 in 10.0 mi WSW 5.8 mph - N/A   Clear
5:53 AM 55.9 °F 54.0 °F 93% 29.90 in 10.0 mi WSW 3.5 mph - N/A   Clear
6:27 AM 57.2 °F 55.4 °F 94% 29.91 in 10.0 mi SW 5.8 mph - N/A   Mostly Cloudy
6:53 AM 59.0 °F 57.0 °F 93% 29.92 in 10.0 mi SW 6.9 mph - N/A   Overcast
7:53 AM 61.0 °F 57.0 °F 87% 29.93 in 10.0 mi SW 3.5 mph - N/A   Overcast
8:53 AM 62.1 °F 55.9 °F 80% 29.94 in 10.0 mi Calm Calm - N/A   Overcast
9:53 AM 64.0 °F 55.9 °F 75% 29.94 in 10.0 mi Calm Calm - N/A   Overcast
10:53 AM 66.0 °F 57.0 °F 73% 29.95 in 10.0 mi Calm Calm - N/A   Overcast
11:53 AM 66.9 °F 57.0 °F 70% 29.95 in 10.0 mi Calm Calm - N/A   Overcast
12:23 PM 69.8 °F 57.2 °F 64% 29.95 in 10.0 mi Calm Calm - N/A   Overcast
12:53 PM 71.1 °F 57.9 °F 63% 29.94 in 10.0 mi Variable 5.8 mph - N/A   Mostly Cloudy
1:53 PM 72.0 °F 57.0 °F 59% 29.94 in 10.0 mi Variable 4.6 mph - N/A   Overcast
2:53 PM 73.0 °F 57.0 °F 57% 29.92 in 10.0 mi SE 8.1 mph - N/A   Scattered Clouds
3:53 PM 75.9 °F 57.9 °F 54% 29.91 in 10.0 mi Calm Calm - N/A   Overcast
4:53 PM 75.9 °F 55.9 °F 50% 29.90 in 10.0 mi West 8.1 mph - N/A   Partly Cloudy
5:53 PM 75.0 °F 55.9 °F 51% 29.89 in 10.0 mi WSW 5.8 mph - N/A   Clear
6:53 PM 72.0 °F 55.9 °F 57% 29.88 in 10.0 mi WSW 10.4 mph - N/A   Clear
7:53 PM 66.9 °F 55.0 °F 66% 29.89 in 10.0 mi WSW 9.2 mph - N/A   Clear
8:53 PM 63.0 °F 55.9 °F 78% 29.90 in 10.0 mi WSW 8.1 mph - N/A   Clear
9:53 PM 61.0 °F 55.9 °F 83% 29.91 in 10.0 mi SW 5.8 mph - N/A   Clear
10:53 PM 60.1 °F 55.9 °F 86% 29.91 in 10.0 mi SW 5.8 mph - N/A   Scattered Clouds
11:53 PM 62.1 °F 57.0 °F 84% 29.91 in 10.0 mi SW 4.6 mph - N/A   Overcast